GEFSSGP_prec_meanprecacc_198.txt.gz
Total_Precipitation_Accumulation
0.05 0.03 0.03 0.04 0.03 0.02 0.00 0.00 0.00 0.00 0.00 0.00 0.00 0.00 0.00 0.00 0.00 0.01 0.01 0.01 0.02 0.04 0.08 0.17 0.22 0.26 0.30 0.32 0.33 0.33 0.32 0.33 0.35 0.37 0.41 0.45 0.46 0.46 0.50 0.53 0.54 0.55 0.60 0.62 0.63 0.60 0.55 0.52 0.49
0.04 0.03 0.05 0.06 0.03 0.01 0.00 0.00 0.00 0.00 0.00 0.00 0.00 0.00 0.00 0.00 0.00 0.00 0.00 0.01 0.01 0.02 0.06 0.12 0.22 0.27 0.31 0.33 0.34 0.34 0.34 0.35 0.36 0.40 0.44 0.47 0.48 0.50 0.52 0.54 0.55 0.58 0.60 0.64 0.62 0.60 0.59 0.56 0.56
0.05 0.06 0.08 0.07 0.03 0.00 0.00 0.00 0.00 0.00 0.00 0.00 0.00 0.00 0.00 0.00 0.00 0.01 0.01 0.01 0.01 0.02 0.04 0.12 0.23 0.29 0.33 0.36 0.37 0.37 0.39 0.39 0.42 0.43 0.47 0.51 0.53 0.56 0.55 0.52 0.50 0.52 0.53 0.54 0.54 0.58 0.64 0.63 0.62
0.08 0.13 0.12 0.07 0.01 0.00 0.00 0.00 0.00 0.00 0.00 0.00 0.00 0.00 0.00 0.00 0.00 0.01 0.01 0.01 0.02 0.02 0.05 0.13 0.23 0.31 0.36 0.40 0.40 0.40 0.42 0.43 0.46 0.49 0.51 0.57 0.63 0.64 0.61 0.57 0.55 0.51 0.50 0.51 0.52 0.58 0.67 0.65 0.60
0.12 0.16 0.13 0.06 0.01 0.00 0.00 0.00 0.00 0.00 0.00 0.00 0.00 0.00 0.00 0.00 0.00 0.01 0.01 0.02 0.03 0.04 0.07 0.13 0.23 0.33 0.38 0.42 0.44 0.44 0.47 0.48 0.51 0.52 0.55 0.60 0.65 0.66 0.65 0.65 0.61 0.58 0.55 0.54 0.52 0.55 0.64 0.63 0.58
0.16 0.18 0.11 0.04 0.01 0.00 0.00 0.00 0.00 0.00 0.00 0.00 0.00 0.00 0.00 0.00 0.00 0.00 0.00 0.01 0.02 0.03 0.05 0.11 0.24 0.34 0.39 0.45 0.48 0.50 0.54 0.58 0.59 0.58 0.63 0.66 0.67 0.68 0.67 0.66 0.62 0.60 0.57 0.55 0.55 0.55 0.59 0.57 0.53
0.16 0.16 0.08 0.03 0.01 0.00 0.00 0.00 0.00 0.00 0.00 0.00 0.00 0.00 0.00 0.00 0.00 0.00 0.01 0.02 0.03 0.05 0.08 0.14 0.25 0.35 0.43 0.50 0.54 0.57 0.61 0.64 0.65 0.66 0.69 0.73 0.73 0.74 0.71 0.66 0.59 0.58 0.58 0.58 0.57 0.54 0.50 0.48 0.46
0.19 0.19 0.09 0.03 0.02 0.01 0.00 0.00 0.00 0.01 0.00 0.00 0.00 0.00 0.00 0.01 0.01 0.01 0.02 0.04 0.06 0.09 0.13 0.18 0.28 0.34 0.43 0.52 0.59 0.64 0.68 0.70 0.76 0.80 0.74 0.74 0.81 0.85 0.81 0.72 0.65 0.61 0.58 0.56 0.55 0.52 0.45 0.39 0.38
0.24 0.28 0.11 0.03 0.02 0.02 0.01 0.01 0.01 0.01 0.01 0.01 0.00 0.00 0.01 0.02 0.02 0.04 0.06 0.09 0.12 0.15 0.18 0.23 0.32 0.40 0.46 0.52 0.58 0.71 0.81 0.84 0.89 0.93 0.85 0.84 0.85 0.83 0.79 0.71 0.69 0.63 0.61 0.56 0.55 0.53 0.50 0.46 0.41
0.29 0.23 0.08 0.02 0.02 0.03 0.03 0.03 0.03 0.04 0.02 0.01 0.01 0.01 0.02 0.03 0.05 0.07 0.08 0.11 0.14 0.16 0.21 0.27 0.35 0.43 0.54 0.60 0.67 0.76 0.84 0.90 0.90 0.81 0.84 0.87 0.82 0.80 0.77 0.75 0.75 0.70 0.68 0.66 0.64 0.57 0.53 0.50 0.42
0.22 0.15 0.06 0.03 0.03 0.04 0.06 0.06 0.05 0.06 0.05 0.03 0.03 0.03 0.04 0.05 0.07 0.08 0.10 0.12 0.14 0.17 0.22 0.30 0.39 0.49 0.60 0.65 0.69 0.74 0.79 0.84 0.86 0.78 0.73 0.76 0.80 0.81 0.82 0.77 0.77 0.77 0.76 0.77 0.73 0.70 0.57 0.49 0.46
0.16 0.10 0.07 0.05 0.05 0.07 0.07 0.08 0.07 0.06 0.06 0.05 0.05 0.04 0.05 0.08 0.09 0.11 0.12 0.14 0.17 0.22 0.26 0.33 0.42 0.52 0.61 0.69 0.72 0.72 0.74 0.75 0.74 0.75 0.76 0.74 0.75 0.69 0.69 0.70 0.66 0.66 0.66 0.67 0.69 0.65 0.59 0.51 0.47
0.14 0.09 0.07 0.07 0.08 0.09 0.10 0.11 0.09 0.05 0.05 0.06 0.07 0.07 0.07 0.09 0.11 0.14 0.16 0.17 0.19 0.24 0.30 0.36 0.45 0.54 0.63 0.74 0.79 0.78 0.76 0.70 0.69 0.72 0.79 0.77 0.70 0.65 0.66 0.65 0.64 0.64 0.62 0.61 0.58 0.54 0.51 0.48 0.45
0.14 0.12 0.09 0.09 0.10 0.12 0.15 0.13 0.12 0.07 0.05 0.08 0.09 0.10 0.09 0.10 0.13 0.17 0.21 0.22 0.21 0.26 0.33 0.40 0.48 0.57 0.67 0.73 0.78 0.79 0.78 0.77 0.78 0.77 0.75 0.80 0.79 0.69 0.68 0.70 0.65 0.63 0.62 0.60 0.59 0.54 0.51 0.47 0.44
0.18 0.20 0.16 0.11 0.10 0.11 0.20 0.23 0.12 0.06 0.07 0.09 0.10 0.12 0.12 0.11 0.13 0.16 0.22 0.26 0.24 0.28 0.37 0.46 0.50 0.61 0.72 0.73 0.81 0.83 0.82 0.83 0.84 0.81 0.79 0.82 0.84 0.83 0.75 0.72 0.69 0.64 0.65 0.66 0.66 0.62 0.54 0.51 0.45
0.28 0.36 0.29 0.15 0.12 0.13 0.26 0.26 0.09 0.06 0.10 0.11 0.12 0.12 0.13 0.11 0.11 0.14 0.21 0.29 0.29 0.32 0.39 0.47 0.55 0.62 0.72 0.77 0.81 0.88 0.89 0.87 0.88 0.92 0.90 0.89 0.90 0.90 0.90 0.82 0.73 0.67 0.71 0.74 0.75 0.73 0.66 0.56 0.50
0.42 0.40 0.28 0.18 0.16 0.19 0.27 0.23 0.09 0.08 0.12 0.13 0.15 0.13 0.12 0.12 0.11 0.12 0.19 0.27 0.32 0.34 0.40 0.49 0.59 0.62 0.70 0.84 0.85 0.88 0.93 0.97 0.97 1.02 1.05 0.99 0.95 0.95 0.97 0.96 0.88 0.79 0.78 0.76 0.75 0.72 0.69 0.64 0.57
0.41 0.30 0.23 0.19 0.19 0.22 0.24 0.19 0.12 0.10 0.13 0.14 0.15 0.13 0.12 0.13 0.10 0.13 0.19 0.24 0.33 0.38 0.43 0.52 0.62 0.68 0.75 0.92 1.03 0.98 1.00 1.03 1.05 1.05 1.03 1.05 1.06 0.96 0.92 0.97 0.98 0.92 0.86 0.82 0.77 0.73 0.66 0.61 0.59
0.27 0.32 0.28 0.19 0.18 0.24 0.24 0.18 0.12 0.11 0.11 0.12 0.12 0.12 0.12 0.11 0.10 0.12 0.18 0.23 0.32 0.44 0.48 0.56 0.62 0.72 0.85 0.95 1.09 1.06 1.01 1.03 1.06 1.02 1.00 0.98 1.05 1.05 0.97 0.92 0.93 0.94 0.90 0.83 0.79 0.78 0.76 0.72 0.65
0.34 0.38 0.30 0.22 0.18 0.28 0.28 0.19 0.11 0.11 0.11 0.11 0.10 0.12 0.14 0.11 0.10 0.12 0.18 0.23 0.30 0.43 0.49 0.56 0.65 0.75 0.82 0.89 0.97 1.05 1.02 1.04 1.10 1.06 1.04 1.01 0.99 1.03 1.06 0.98 0.91 0.86 0.87 0.88 0.83 0.81 0.80 0.80 0.74
0.41 0.34 0.26 0.25 0.23 0.30 0.36 0.29 0.14 0.12 0.10 0.10 0.10 0.10 0.15 0.16 0.13 0.14 0.22 0.28 0.32 0.42 0.50 0.56 0.66 0.75 0.81 0.96 1.06 1.14 1.24 1.24 1.26 1.25 1.14 1.05 1.00 0.97 1.00 1.01 0.96 0.90 0.84 0.85 0.83 0.79 0.77 0.77 0.73
0.44 0.23 0.22 0.26 0.41 0.48 0.42 0.48 0.18 0.14 0.13 0.12 0.10 0.09 0.12 0.14 0.14 0.15 0.20 0.29 0.33 0.39 0.50 0.59 0.69 0.76 0.80 0.99 1.14 1.11 1.18 1.18 1.11 1.07 1.10 1.07 1.02 0.98 0.95 0.95 0.95 0.97 0.91 0.81 0.78 0.79 0.78 0.80 0.80
0.34 0.21 0.25 0.34 0.47 0.56 0.42 0.49 0.25 0.14 0.14 0.11 0.09 0.08 0.10 0.12 0.13 0.13 0.14 0.20 0.29 0.36 0.47 0.58 0.72 0.82 0.84 0.92 1.11 1.15 1.09 1.05 1.05 1.09 1.08 1.11 1.11 1.05 0.96 0.92 0.91 0.91 0.90 0.83 0.76 0.78 0.80 0.81 0.81
0.33 0.39 0.45 0.50 0.76 0.95 0.37 0.37 0.29 0.23 0.24 0.15 0.09 0.08 0.10 0.10 0.12 0.12 0.11 0.13 0.25 0.37 0.47 0.55 0.68 0.81 0.87 0.87 0.99 1.15 1.10 1.05 1.04 1.08 1.12 1.11 1.14 1.12 1.02 0.91 0.87 0.83 0.81 0.80 0.74 0.68 0.69 0.73 0.73
0.54 0.84 1.19 1.20 1.24 0.77 0.17 0.25 0.29 0.22 0.20 0.19 0.14 0.10 0.10 0.10 0.14 0.14 0.12 0.13 0.20 0.32 0.43 0.53 0.63 0.72 0.80 0.83 0.87 0.97 1.09 1.06 0.98 0.93 0.99 1.07 1.14 1.10 1.01 0.94 0.86 0.80 0.77 0.76 0.75 0.71 0.64 0.64 0.69
0.56 0.76 1.00 0.90 0.58 0.23 0.10 0.21 0.22 0.15 0.12 0.13 0.10 0.09 0.10 0.09 0.10 0.11 0.13 0.15 0.18 0.23 0.30 0.43 0.54 0.67 0.79 0.84 0.83 0.88 0.98 1.09 1.01 0.93 0.91 0.95 1.01 0.97 0.89 0.89 0.85 0.78 0.74 0.75 0.77 0.76 0.69 0.65 0.66
0.54 0.58 0.50 0.65 0.48 0.30 0.20 0.17 0.14 0.07 0.06 0.08 0.09 0.08 0.09 0.09 0.09 0.10 0.12 0.15 0.17 0.22 0.25 0.36 0.45 0.59 0.77 0.89 0.88 0.88 0.92 1.00 1.02 0.93 0.90 0.91 0.92 0.92 0.90 0.88 0.87 0.83 0.82 0.81 0.81 0.80 0.74 0.70 0.67
0.45 0.52 0.66 0.97 0.81 0.42 0.22 0.19 0.20 0.12 0.10 0.09 0.10 0.10 0.09 0.10 0.11 0.11 0.12 0.15 0.17 0.20 0.23 0.31 0.39 0.47 0.60 0.79 0.92 0.92 0.89 0.89 0.96 0.98 0.95 0.91 0.90 0.90 0.90 0.93 0.93 0.88 0.84 0.87 0.89 0.84 0.77 0.77 0.74
0.55 0.70 0.90 0.94 0.66 0.47 0.29 0.24 0.24 0.17 0.14 0.13 0.11 0.11 0.11 0.10 0.11 0.11 0.13 0.15 0.18 0.21 0.26 0.32 0.39 0.45 0.51 0.61 0.77 0.89 0.90 0.93 0.97 1.01 0.97 0.96 0.93 0.92 0.88 0.88 0.94 0.96 0.90 0.84 0.90 0.91 0.86 0.85 0.80
0.48 0.62 0.79 0.95 0.66 0.35 0.30 0.24 0.19 0.14 0.13 0.13 0.11 0.09 0.08 0.08 0.09 0.09 0.10 0.16 0.19 0.24 0.29 0.34 0.42 0.44 0.47 0.55 0.65 0.77 0.87 0.92 0.97 0.95 1.00 1.05 1.03 0.95 0.87 0.84 0.90 0.96 0.95 0.88 0.86 0.88 0.87 0.89 0.86

GEFSSGP_prec_meanprecacc_204.txt.gz
Total_Precipitation_Accumulation
0.05 0.03 0.03 0.04 0.03 0.02 0.00 0.00 0.00 0.00 0.00 0.00 0.00 0.00 0.00 0.00 0.00 0.01 0.01 0.01 0.02 0.04 0.08 0.17 0.22 0.26 0.30 0.32 0.33 0.33 0.33 0.34 0.37 0.39 0.43 0.47 0.48 0.49 0.53 0.56 0.58 0.59 0.65 0.67 0.69 0.67 0.63 0.60 0.56
0.04 0.03 0.05 0.06 0.03 0.01 0.00 0.00 0.00 0.00 0.00 0.00 0.00 0.00 0.00 0.00 0.00 0.00 0.00 0.01 0.01 0.02 0.06 0.12 0.22 0.27 0.31 0.33 0.34 0.34 0.34 0.35 0.37 0.41 0.46 0.49 0.50 0.52 0.54 0.57 0.59 0.61 0.64 0.69 0.69 0.67 0.65 0.63 0.64
0.05 0.06 0.08 0.07 0.03 0.00 0.00 0.00 0.00 0.00 0.00 0.00 0.00 0.00 0.00 0.00 0.00 0.01 0.01 0.01 0.01 0.02 0.04 0.12 0.23 0.29 0.33 0.36 0.37 0.38 0.39 0.40 0.42 0.44 0.47 0.52 0.54 0.57 0.57 0.55 0.54 0.55 0.55 0.57 0.59 0.64 0.69 0.68 0.68
0.09 0.13 0.12 0.07 0.01 0.00 0.00 0.00 0.00 0.00 0.00 0.00 0.00 0.00 0.00 0.00 0.00 0.01 0.01 0.01 0.02 0.03 0.05 0.13 0.23 0.31 0.36 0.40 0.40 0.40 0.42 0.44 0.47 0.49 0.51 0.57 0.63 0.65 0.62 0.59 0.59 0.55 0.52 0.54 0.56 0.62 0.72 0.70 0.65
0.12 0.17 0.13 0.06 0.01 0.00 0.00 0.00 0.00 0.00 0.00 0.00 0.00 0.00 0.00 0.00 0.00 0.01 0.01 0.02 0.03 0.05 0.07 0.13 0.23 0.34 0.39 0.43 0.45 0.45 0.48 0.49 0.51 0.53 0.56 0.60 0.65 0.67 0.65 0.66 0.63 0.60 0.57 0.56 0.55 0.60 0.70 0.68 0.62
0.16 0.18 0.11 0.04 0.01 0.00 0.00 0.00 0.00 0.00 0.00 0.00 0.00 0.00 0.00 0.00 0.00 0.00 0.00 0.01 0.02 0.03 0.05 0.11 0.25 0.34 0.40 0.45 0.49 0.51 0.55 0.59 0.59 0.59 0.64 0.67 0.69 0.69 0.67 0.67 0.63 0.61 0.59 0.57 0.57 0.60 0.65 0.62 0.58
0.17 0.16 0.08 0.03 0.01 0.00 0.00 0.00 0.00 0.00 0.00 0.00 0.00 0.00 0.00 0.00 0.00 0.00 0.01 0.02 0.03 0.05 0.08 0.14 0.25 0.35 0.43 0.51 0.54 0.57 0.61 0.64 0.65 0.67 0.69 0.73 0.73 0.74 0.72 0.66 0.59 0.59 0.59 0.59 0.59 0.57 0.56 0.54 0.52
0.19 0.19 0.09 0.03 0.02 0.01 0.00 0.00 0.00 0.01 0.00 0.00 0.00 0.00 0.00 0.01 0.01 0.01 0.02 0.04 0.06 0.09 0.13 0.19 0.28 0.35 0.43 0.52 0.59 0.64 0.69 0.70 0.76 0.80 0.74 0.74 0.81 0.85 0.81 0.72 0.66 0.61 0.59 0.58 0.56 0.54 0.48 0.45 0.46
0.24 0.28 0.11 0.03 0.02 0.02 0.01 0.01 0.01 0.01 0.01 0.01 0.00 0.00 0.01 0.02 0.02 0.04 0.06 0.09 0.12 0.15 0.18 0.23 0.32 0.40 0.46 0.52 0.58 0.71 0.81 0.85 0.89 0.93 0.85 0.84 0.86 0.84 0.80 0.72 0.70 0.64 0.61 0.57 0.57 0.55 0.53 0.49 0.46
0.29 0.23 0.08 0.02 0.02 0.03 0.03 0.03 0.03 0.04 0.02 0.01 0.01 0.01 0.02 0.03 0.05 0.07 0.08 0.11 0.14 0.16 0.21 0.27 0.35 0.44 0.54 0.60 0.67 0.76 0.85 0.91 0.90 0.81 0.84 0.87 0.82 0.80 0.77 0.75 0.76 0.71 0.69 0.67 0.65 0.59 0.56 0.53 0.45
0.22 0.15 0.06 0.03 0.03 0.04 0.06 0.06 0.05 0.06 0.05 0.03 0.03 0.03 0.04 0.05 0.07 0.08 0.10 0.12 0.14 0.17 0.23 0.30 0.40 0.50 0.60 0.65 0.69 0.75 0.80 0.84 0.87 0.79 0.73 0.76 0.80 0.81 0.82 0.77 0.77 0.77 0.77 0.79 0.75 0.72 0.60 0.52 0.48
0.16 0.10 0.07 0.05 0.05 0.07 0.07 0.08 0.07 0.06 0.06 0.05 0.05 0.04 0.05 0.08 0.09 0.11 0.13 0.14 0.17 0.22 0.26 0.33 0.42 0.52 0.62 0.69 0.72 0.72 0.75 0.76 0.75 0.76 0.76 0.74 0.75 0.69 0.69 0.70 0.66 0.66 0.66 0.68 0.71 0.67 0.62 0.53 0.48
0.14 0.09 0.07 0.07 0.08 0.09 0.10 0.11 0.09 0.05 0.05 0.06 0.07 0.07 0.07 0.09 0.11 0.14 0.16 0.17 0.19 0.24 0.30 0.36 0.45 0.54 0.63 0.74 0.80 0.78 0.76 0.70 0.70 0.73 0.80 0.77 0.70 0.65 0.66 0.65 0.64 0.64 0.62 0.61 0.59 0.56 0.54 0.50 0.47
0.15 0.12 0.09 0.09 0.10 0.12 0.15 0.13 0.12 0.07 0.05 0.08 0.09 0.10 0.09 0.10 0.13 0.17 0.21 0.22 0.21 0.26 0.33 0.40 0.48 0.57 0.67 0.73 0.79 0.79 0.78 0.77 0.78 0.77 0.76 0.80 0.79 0.69 0.68 0.70 0.65 0.63 0.62 0.61 0.59 0.55 0.52 0.50 0.46
0.18 0.21 0.16 0.11 0.10 0.11 0.20 0.23 0.12 0.06 0.07 0.09 0.10 0.12 0.12 0.11 0.13 0.16 0.22 0.26 0.24 0.28 0.37 0.46 0.50 0.61 0.72 0.73 0.81 0.83 0.82 0.83 0.84 0.81 0.79 0.82 0.84 0.84 0.75 0.72 0.69 0.64 0.65 0.67 0.66 0.62 0.55 0.52 0.48
0.28 0.37 0.29 0.15 0.12 0.13 0.26 0.26 0.09 0.06 0.10 0.11 0.12 0.12 0.13 0.11 0.11 0.14 0.21 0.29 0.29 0.32 0.39 0.47 0.55 0.62 0.72 0.77 0.81 0.88 0.89 0.88 0.88 0.92 0.90 0.89 0.90 0.91 0.90 0.82 0.73 0.67 0.71 0.74 0.76 0.73 0.67 0.57 0.52
0.43 0.40 0.28 0.18 0.16 0.19 0.27 0.23 0.09 0.08 0.12 0.13 0.15 0.13 0.12 0.12 0.11 0.12 0.19 0.27 0.32 0.34 0.40 0.49 0.59 0.62 0.70 0.84 0.85 0.88 0.93 0.97 0.97 1.02 1.05 1.00 0.96 0.95 0.97 0.96 0.88 0.79 0.78 0.76 0.75 0.73 0.70 0.65 0.59
0.41 0.30 0.23 0.19 0.19 0.22 0.24 0.19 0.12 0.10 0.13 0.14 0.15 0.13 0.12 0.13 0.10 0.13 0.19 0.24 0.33 0.38 0.43 0.52 0.62 0.68 0.75 0.92 1.03 0.98 1.00 1.03 1.05 1.05 1.03 1.06 1.06 0.96 0.92 0.97 0.98 0.92 0.86 0.82 0.77 0.73 0.67 0.62 0.61
0.27 0.32 0.28 0.19 0.18 0.24 0.24 0.18 0.12 0.11 0.11 0.12 0.12 0.12 0.12 0.11 0.10 0.12 0.18 0.23 0.32 0.44 0.48 0.56 0.62 0.72 0.85 0.95 1.09 1.06 1.01 1.04 1.06 1.02 1.00 0.99 1.05 1.06 0.98 0.92 0.93 0.94 0.90 0.83 0.80 0.78 0.77 0.73 0.67
0.35 0.39 0.31 0.22 0.18 0.28 0.28 0.19 0.11 0.11 0.11 0.11 0.10 0.12 0.14 0.11 0.10 0.12 0.18 0.23 0.30 0.43 0.49 0.56 0.65 0.75 0.82 0.89 0.97 1.05 1.02 1.04 1.10 1.07 1.05 1.02 1.00 1.04 1.06 0.98 0.91 0.86 0.87 0.88 0.83 0.81 0.81 0.81 0.77
0.42 0.35 0.26 0.25 0.23 0.30 0.36 0.29 0.14 0.12 0.10 0.10 0.10 0.10 0.15 0.16 0.13 0.14 0.22 0.28 0.32 0.42 0.50 0.56 0.66 0.75 0.81 0.96 1.06 1.14 1.24 1.24 1.26 1.26 1.14 1.05 1.01 0.98 1.01 1.01 0.97 0.90 0.84 0.86 0.83 0.80 0.78 0.79 0.75
0.45 0.23 0.22 0.26 0.42 0.49 0.42 0.48 0.18 0.14 0.13 0.12 0.10 0.09 0.12 0.14 0.14 0.15 0.20 0.29 0.33 0.39 0.50 0.59 0.69 0.76 0.80 0.99 1.14 1.11 1.18 1.18 1.11 1.08 1.11 1.08 1.03 0.99 0.95 0.96 0.96 0.98 0.92 0.82 0.79 0.79 0.79 0.81 0.82
0.35 0.21 0.26 0.34 0.49 0.57 0.42 0.49 0.25 0.14 0.14 0.11 0.09 0.08 0.10 0.12 0.13 0.13 0.14 0.20 0.29 0.36 0.47 0.58 0.72 0.82 0.84 0.92 1.11 1.15 1.09 1.05 1.06 1.09 1.09 1.12 1.12 1.06 0.97 0.93 0.92 0.92 0.90 0.83 0.77 0.79 0.81 0.83 0.83
0.34 0.40 0.46 0.52 0.78 0.97 0.38 0.37 0.29 0.23 0.24 0.15 0.09 0.08 0.10 0.10 0.12 0.12 0.11 0.13 0.25 0.37 0.47 0.55 0.68 0.81 0.87 0.87 0.99 1.15 1.10 1.06 1.04 1.09 1.13 1.13 1.16 1.13 1.03 0.92 0.88 0.84 0.81 0.80 0.75 0.70 0.71 0.75 0.75
0.56 0.86 1.22 1.23 1.26 0.78 0.17 0.25 0.29 0.22 0.20 0.19 0.14 0.10 0.10 0.10 0.14 0.14 0.12 0.13 0.20 0.32 0.43 0.53 0.63 0.72 0.80 0.83 0.88 0.98 1.10 1.06 0.99 0.94 1.00 1.08 1.15 1.11 1.03 0.96 0.88 0.81 0.77 0.76 0.75 0.72 0.66 0.66 0.71
0.57 0.78 1.02 0.92 0.59 0.23 0.11 0.21 0.22 0.15 0.12 0.13 0.10 0.09 0.10 0.09 0.10 0.11 0.13 0.15 0.18 0.23 0.30 0.43 0.54 0.67 0.80 0.84 0.84 0.89 0.99 1.10 1.02 0.94 0.92 0.97 1.02 0.98 0.91 0.91 0.88 0.80 0.75 0.76 0.78 0.78 0.71 0.68 0.69
0.55 0.59 0.51 0.67 0.49 0.31 0.20 0.17 0.14 0.07 0.06 0.08 0.09 0.08 0.09 0.09 0.09 0.10 0.12 0.15 0.17 0.22 0.25 0.36 0.45 0.59 0.78 0.89 0.88 0.88 0.92 1.01 1.03 0.94 0.91 0.92 0.93 0.93 0.91 0.90 0.90 0.85 0.83 0.83 0.82 0.83 0.77 0.73 0.72
0.46 0.54 0.68 1.00 0.83 0.43 0.22 0.19 0.21 0.12 0.10 0.09 0.10 0.10 0.09 0.10 0.11 0.11 0.12 0.15 0.17 0.20 0.23 0.31 0.39 0.47 0.60 0.79 0.93 0.93 0.90 0.91 0.98 1.00 0.97 0.92 0.91 0.92 0.91 0.95 0.97 0.91 0.87 0.90 0.92 0.87 0.81 0.81 0.78
0.57 0.73 0.93 0.97 0.69 0.49 0.30 0.25 0.25 0.18 0.14 0.13 0.11 0.11 0.11 0.10 0.11 0.11 0.13 0.15 0.18 0.21 0.26 0.32 0.39 0.45 0.51 0.61 0.78 0.90 0.91 0.95 1.00 1.03 0.99 0.97 0.94 0.92 0.89 0.89 0.96 0.99 0.93 0.86 0.93 0.93 0.89 0.88 0.82
0.50 0.65 0.83 1.00 0.69 0.36 0.31 0.26 0.20 0.15 0.13 0.13 0.11 0.09 0.08 0.08 0.09 0.09 0.10 0.16 0.20 0.24 0.29 0.35 0.43 0.45 0.47 0.55 0.65 0.78 0.88 0.93 1.00 0.98 1.01 1.06 1.04 0.96 0.87 0.85 0.91 0.98 0.98 0.89 0.87 0.89 0.89 0.90 0.87

GEFSSGP_prec_meanprecacc_210.txt.gz
Total_Precipitation_Accumulation
0.05 0.03 0.03 0.05 0.04 0.02 0.00 0.00 0.00 0.00 0.00 0.00 0.00 0.00 0.00 0.00 0.00 0.01 0.01 0.01 0.02 0.04 0.09 0.17 0.23 0.27 0.30 0.33 0.34 0.34 0.34 0.35 0.37 0.39 0.43 0.47 0.49 0.50 0.54 0.58 0.60 0.61 0.67 0.70 0.72 0.70 0.67 0.66 0.61
0.04 0.04 0.05 0.07 0.03 0.01 0.00 0.00 0.00 0.00 0.00 0.00 0.00 0.00 0.00 0.00 0.00 0.00 0.01 0.01 0.01 0.02 0.06 0.13 0.22 0.27 0.31 0.33 0.34 0.35 0.35 0.36 0.37 0.41 0.46 0.49 0.51 0.53 0.56 0.58 0.61 0.62 0.64 0.71 0.71 0.68 0.68 0.66 0.67
0.06 0.07 0.09 0.07 0.03 0.00 0.00 0.00 0.00 0.00 0.00 0.00 0.00 0.00 0.00 0.00 0.00 0.01 0.01 0.01 0.01 0.02 0.04 0.12 0.23 0.29 0.33 0.36 0.38 0.38 0.39 0.40 0.42 0.44 0.48 0.53 0.55 0.57 0.58 0.56 0.55 0.56 0.55 0.58 0.60 0.66 0.71 0.70 0.70
0.09 0.13 0.13 0.07 0.01 0.00 0.00 0.00 0.00 0.00 0.00 0.00 0.00 0.00 0.00 0.00 0.00 0.01 0.01 0.01 0.02 0.03 0.05 0.13 0.23 0.31 0.36 0.41 0.40 0.40 0.42 0.44 0.47 0.50 0.52 0.58 0.64 0.65 0.63 0.59 0.60 0.55 0.53 0.54 0.56 0.63 0.73 0.71 0.66
0.13 0.17 0.14 0.06 0.01 0.00 0.00 0.00 0.00 0.00 0.00 0.00 0.00 0.00 0.00 0.00 0.00 0.01 0.01 0.02 0.03 0.05 0.07 0.14 0.24 0.34 0.39 0.43 0.45 0.46 0.48 0.49 0.52 0.53 0.56 0.61 0.66 0.67 0.66 0.66 0.63 0.60 0.57 0.57 0.56 0.60 0.71 0.69 0.64
0.17 0.18 0.12 0.04 0.01 0.00 0.00 0.00 0.00 0.00 0.00 0.00 0.00 0.00 0.00 0.00 0.00 0.00 0.01 0.01 0.02 0.03 0.05 0.12 0.25 0.35 0.40 0.45 0.49 0.51 0.56 0.59 0.60 0.60 0.64 0.67 0.69 0.69 0.68 0.67 0.63 0.62 0.59 0.57 0.58 0.61 0.65 0.63 0.59
0.17 0.16 0.08 0.03 0.01 0.00 0.00 0.00 0.00 0.00 0.00 0.00 0.00 0.00 0.00 0.00 0.00 0.00 0.01 0.02 0.04 0.06 0.09 0.14 0.26 0.35 0.44 0.51 0.54 0.57 0.62 0.64 0.65 0.67 0.70 0.74 0.74 0.75 0.72 0.67 0.60 0.60 0.59 0.60 0.60 0.58 0.57 0.55 0.52
0.19 0.20 0.10 0.03 0.02 0.01 0.00 0.00 0.00 0.01 0.00 0.00 0.00 0.00 0.00 0.01 0.01 0.01 0.03 0.05 0.07 0.10 0.13 0.19 0.28 0.35 0.43 0.52 0.59 0.64 0.69 0.70 0.76 0.80 0.74 0.74 0.81 0.85 0.81 0.72 0.66 0.62 0.60 0.58 0.57 0.55 0.49 0.46 0.47
0.25 0.28 0.12 0.03 0.02 0.02 0.01 0.01 0.01 0.01 0.01 0.01 0.00 0.00 0.01 0.02 0.02 0.04 0.06 0.10 0.13 0.16 0.18 0.23 0.33 0.40 0.46 0.52 0.58 0.71 0.81 0.85 0.89 0.93 0.85 0.84 0.86 0.84 0.80 0.72 0.70 0.65 0.62 0.58 0.58 0.56 0.54 0.51 0.47
0.30 0.24 0.08 0.02 0.02 0.03 0.04 0.03 0.03 0.04 0.02 0.01 0.01 0.01 0.02 0.03 0.05 0.07 0.09 0.11 0.14 0.17 0.21 0.27 0.35 0.44 0.54 0.60 0.67 0.76 0.85 0.91 0.90 0.81 0.84 0.87 0.82 0.80 0.77 0.75 0.76 0.71 0.69 0.67 0.66 0.60 0.58 0.55 0.46
0.23 0.15 0.06 0.03 0.03 0.05 0.06 0.06 0.05 0.06 0.05 0.03 0.03 0.03 0.04 0.05 0.07 0.09 0.11 0.13 0.15 0.17 0.23 0.30 0.40 0.50 0.60 0.65 0.69 0.75 0.80 0.84 0.87 0.79 0.73 0.76 0.80 0.81 0.82 0.77 0.77 0.77 0.77 0.79 0.75 0.73 0.61 0.52 0.49
0.17 0.10 0.07 0.06 0.05 0.07 0.08 0.08 0.07 0.06 0.06 0.05 0.05 0.04 0.05 0.08 0.09 0.11 0.13 0.14 0.17 0.22 0.27 0.33 0.42 0.52 0.62 0.69 0.72 0.72 0.75 0.76 0.75 0.76 0.76 0.74 0.75 0.69 0.69 0.70 0.66 0.66 0.66 0.68 0.71 0.67 0.62 0.53 0.49
0.15 0.09 0.07 0.07 0.09 0.10 0.10 0.11 0.09 0.05 0.05 0.06 0.07 0.07 0.07 0.09 0.11 0.14 0.16 0.18 0.20 0.24 0.30 0.36 0.46 0.54 0.63 0.74 0.80 0.78 0.76 0.70 0.70 0.73 0.80 0.77 0.70 0.65 0.66 0.65 0.64 0.64 0.62 0.61 0.59 0.56 0.54 0.50 0.47
0.15 0.12 0.10 0.09 0.10 0.12 0.15 0.14 0.12 0.07 0.05 0.08 0.09 0.10 0.09 0.10 0.13 0.17 0.21 0.22 0.21 0.27 0.34 0.40 0.48 0.57 0.67 0.74 0.79 0.79 0.78 0.77 0.78 0.77 0.76 0.81 0.79 0.69 0.68 0.70 0.65 0.63 0.62 0.61 0.59 0.55 0.52 0.50 0.47
0.19 0.21 0.16 0.11 0.11 0.11 0.21 0.23 0.12 0.06 0.07 0.09 0.10 0.12 0.12 0.11 0.13 0.16 0.22 0.27 0.24 0.28 0.37 0.46 0.50 0.62 0.72 0.73 0.81 0.83 0.82 0.83 0.84 0.81 0.79 0.82 0.84 0.84 0.75 0.72 0.69 0.64 0.65 0.67 0.66 0.62 0.55 0.53 0.48
0.29 0.38 0.30 0.15 0.12 0.13 0.26 0.26 0.09 0.06 0.10 0.11 0.12 0.12 0.13 0.11 0.11 0.14 0.21 0.29 0.30 0.32 0.39 0.47 0.55 0.62 0.72 0.78 0.82 0.88 0.89 0.88 0.88 0.92 0.90 0.89 0.90 0.91 0.91 0.82 0.73 0.67 0.71 0.74 0.76 0.73 0.67 0.57 0.52
0.44 0.41 0.28 0.18 0.16 0.19 0.27 0.23 0.09 0.08 0.12 0.13 0.15 0.13 0.12 0.13 0.11 0.12 0.19 0.27 0.32 0.34 0.41 0.49 0.59 0.62 0.70 0.84 0.85 0.88 0.94 0.97 0.97 1.02 1.05 1.00 0.96 0.95 0.97 0.96 0.89 0.79 0.78 0.77 0.75 0.73 0.70 0.65 0.59
0.42 0.30 0.23 0.19 0.19 0.22 0.24 0.19 0.12 0.10 0.13 0.14 0.15 0.13 0.12 0.13 0.11 0.13 0.19 0.24 0.33 0.38 0.44 0.53 0.62 0.69 0.75 0.92 1.03 0.98 1.00 1.03 1.05 1.05 1.03 1.06 1.06 0.96 0.92 0.98 0.98 0.92 0.86 0.82 0.77 0.73 0.67 0.62 0.61
0.28 0.33 0.29 0.19 0.18 0.24 0.24 0.18 0.12 0.11 0.11 0.12 0.12 0.12 0.12 0.11 0.10 0.12 0.18 0.23 0.32 0.44 0.48 0.56 0.62 0.73 0.85 0.95 1.09 1.06 1.01 1.04 1.06 1.02 1.01 0.99 1.05 1.06 0.98 0.92 0.93 0.95 0.90 0.83 0.80 0.78 0.77 0.73 0.67
0.36 0.40 0.31 0.23 0.18 0.29 0.28 0.19 0.11 0.11 0.11 0.11 0.10 0.12 0.14 0.11 0.10 0.12 0.18 0.23 0.30 0.43 0.49 0.56 0.65 0.75 0.82 0.89 0.97 1.05 1.02 1.04 1.10 1.07 1.05 1.02 1.00 1.04 1.07 0.98 0.91 0.86 0.87 0.88 0.83 0.82 0.81 0.81 0.77
0.43 0.36 0.26 0.26 0.24 0.31 0.36 0.29 0.14 0.12 0.10 0.10 0.10 0.10 0.15 0.16 0.13 0.14 0.22 0.28 0.32 0.42 0.50 0.56 0.66 0.75 0.81 0.96 1.06 1.14 1.24 1.24 1.26 1.26 1.14 1.05 1.01 0.98 1.01 1.02 0.97 0.91 0.85 0.86 0.84 0.80 0.78 0.79 0.75
0.47 0.24 0.22 0.27 0.43 0.50 0.42 0.48 0.18 0.14 0.13 0.12 0.10 0.09 0.12 0.14 0.14 0.15 0.20 0.29 0.33 0.39 0.50 0.59 0.69 0.76 0.80 0.99 1.14 1.11 1.18 1.18 1.11 1.08 1.11 1.08 1.03 0.99 0.96 0.96 0.97 0.99 0.92 0.82 0.79 0.79 0.80 0.82 0.82
0.37 0.22 0.26 0.35 0.50 0.59 0.43 0.49 0.25 0.14 0.14 0.11 0.09 0.08 0.10 0.12 0.13 0.13 0.14 0.20 0.29 0.36 0.47 0.58 0.72 0.82 0.84 0.92 1.11 1.15 1.09 1.05 1.06 1.09 1.09 1.12 1.12 1.06 0.97 0.93 0.93 0.93 0.91 0.84 0.77 0.79 0.81 0.83 0.83
0.35 0.42 0.47 0.53 0.80 0.99 0.39 0.38 0.29 0.23 0.24 0.15 0.09 0.08 0.10 0.10 0.12 0.12 0.11 0.13 0.25 0.37 0.47 0.55 0.68 0.81 0.87 0.87 0.99 1.15 1.10 1.06 1.04 1.09 1.13 1.13 1.16 1.13 1.03 0.92 0.89 0.85 0.82 0.81 0.75 0.70 0.71 0.75 0.75
0.58 0.89 1.26 1.26 1.29 0.79 0.17 0.25 0.29 0.22 0.20 0.19 0.14 0.10 0.10 0.10 0.14 0.14 0.12 0.13 0.20 0.32 0.43 0.53 0.63 0.72 0.80 0.83 0.88 0.98 1.10 1.06 0.99 0.94 1.00 1.08 1.15 1.11 1.03 0.97 0.88 0.82 0.78 0.78 0.76 0.73 0.67 0.67 0.71
0.60 0.81 1.06 0.95 0.60 0.24 0.11 0.21 0.22 0.15 0.12 0.13 0.10 0.09 0.10 0.09 0.10 0.11 0.13 0.15 0.18 0.23 0.30 0.43 0.54 0.67 0.80 0.84 0.84 0.89 0.99 1.10 1.02 0.94 0.92 0.97 1.02 0.99 0.91 0.92 0.88 0.80 0.76 0.78 0.80 0.79 0.72 0.68 0.69
0.58 0.61 0.53 0.70 0.51 0.32 0.21 0.17 0.14 0.07 0.06 0.08 0.09 0.08 0.09 0.09 0.09 0.10 0.12 0.15 0.17 0.22 0.25 0.36 0.45 0.59 0.78 0.89 0.88 0.88 0.92 1.01 1.03 0.95 0.91 0.93 0.93 0.93 0.92 0.91 0.91 0.86 0.84 0.85 0.85 0.85 0.78 0.74 0.72
0.49 0.57 0.71 1.04 0.86 0.45 0.22 0.20 0.22 0.13 0.11 0.09 0.10 0.10 0.09 0.10 0.11 0.11 0.12 0.15 0.17 0.20 0.23 0.31 0.39 0.47 0.60 0.79 0.93 0.93 0.90 0.91 0.98 1.00 0.97 0.92 0.91 0.92 0.92 0.97 0.98 0.93 0.89 0.92 0.94 0.90 0.83 0.82 0.78
0.59 0.76 0.97 1.01 0.73 0.52 0.32 0.27 0.27 0.20 0.16 0.14 0.11 0.11 0.11 0.10 0.11 0.11 0.13 0.15 0.18 0.21 0.26 0.32 0.39 0.45 0.51 0.61 0.78 0.90 0.91 0.95 1.00 1.03 0.99 0.97 0.94 0.93 0.90 0.90 0.98 1.01 0.94 0.88 0.95 0.97 0.92 0.90 0.83
0.51 0.68 0.87 1.05 0.73 0.39 0.34 0.29 0.23 0.18 0.16 0.14 0.12 0.10 0.08 0.08 0.09 0.09 0.10 0.16 0.20 0.24 0.29 0.35 0.43 0.45 0.47 0.55 0.66 0.78 0.89 0.94 1.00 0.98 1.01 1.06 1.04 0.97 0.89 0.86 0.93 1.00 0.99 0.91 0.90 0.93 0.91 0.92 0.89

GEFSSGP_prec_meanprecacc_216.txt.gz
Total_Precipitation_Accumulation
0.06 0.04 0.04 0.05 0.04 0.02 0.00 0.00 0.00 0.00 0.00 0.00 0.00 0.00 0.00 0.00 0.00 0.01 0.01 0.01 0.02 0.05 0.09 0.18 0.24 0.28 0.31 0.33 0.34 0.34 0.34 0.35 0.38 0.40 0.44 0.49 0.51 0.52 0.56 0.60 0.61 0.63 0.68 0.72 0.74 0.71 0.69 0.67 0.63
0.05 0.04 0.06 0.07 0.04 0.01 0.00 0.00 0.00 0.00 0.00 0.00 0.00 0.00 0.00 0.00 0.00 0.00 0.01 0.01 0.01 0.02 0.06 0.13 0.23 0.28 0.32 0.34 0.35 0.35 0.35 0.36 0.38 0.42 0.47 0.50 0.51 0.53 0.57 0.60 0.63 0.64 0.66 0.73 0.74 0.71 0.69 0.68 0.69
0.07 0.08 0.10 0.08 0.03 0.00 0.00 0.00 0.00 0.00 0.00 0.00 0.00 0.00 0.00 0.00 0.00 0.01 0.01 0.01 0.01 0.02 0.04 0.13 0.24 0.30 0.34 0.37 0.38 0.38 0.40 0.41 0.43 0.45 0.48 0.54 0.56 0.58 0.59 0.58 0.57 0.58 0.57 0.60 0.62 0.68 0.73 0.72 0.71
0.10 0.15 0.14 0.08 0.02 0.00 0.00 0.00 0.00 0.00 0.00 0.00 0.00 0.00 0.00 0.00 0.01 0.01 0.01 0.01 0.02 0.03 0.05 0.14 0.24 0.32 0.37 0.41 0.41 0.41 0.43 0.45 0.48 0.50 0.52 0.58 0.65 0.66 0.64 0.60 0.61 0.57 0.54 0.55 0.58 0.64 0.74 0.73 0.68
0.14 0.18 0.15 0.07 0.01 0.00 0.00 0.00 0.00 0.00 0.00 0.00 0.00 0.00 0.00 0.00 0.00 0.01 0.01 0.02 0.03 0.05 0.08 0.14 0.24 0.35 0.40 0.44 0.46 0.46 0.49 0.50 0.52 0.54 0.57 0.61 0.66 0.68 0.66 0.67 0.64 0.61 0.58 0.57 0.57 0.61 0.72 0.70 0.65
0.18 0.19 0.13 0.04 0.01 0.00 0.00 0.00 0.00 0.00 0.00 0.00 0.00 0.00 0.00 0.00 0.00 0.00 0.01 0.01 0.02 0.03 0.06 0.12 0.26 0.35 0.41 0.46 0.50 0.52 0.56 0.59 0.60 0.60 0.65 0.68 0.69 0.69 0.68 0.67 0.64 0.63 0.61 0.58 0.59 0.61 0.66 0.63 0.60
0.19 0.17 0.09 0.03 0.01 0.00 0.00 0.00 0.00 0.00 0.00 0.00 0.00 0.00 0.00 0.00 0.00 0.00 0.01 0.02 0.04 0.06 0.09 0.15 0.26 0.36 0.44 0.52 0.55 0.58 0.62 0.65 0.65 0.67 0.70 0.74 0.74 0.75 0.72 0.67 0.60 0.61 0.61 0.61 0.61 0.59 0.57 0.55 0.53
0.20 0.21 0.10 0.04 0.02 0.01 0.00 0.00 0.00 0.01 0.00 0.00 0.00 0.00 0.00 0.01 0.01 0.01 0.03 0.05 0.08 0.10 0.14 0.19 0.29 0.35 0.44 0.53 0.60 0.65 0.69 0.71 0.77 0.80 0.74 0.75 0.81 0.85 0.81 0.72 0.66 0.62 0.61 0.60 0.58 0.56 0.50 0.47 0.48
0.27 0.30 0.12 0.03 0.02 0.02 0.01 0.01 0.01 0.01 0.01 0.01 0.00 0.00 0.01 0.02 0.02 0.04 0.07 0.10 0.14 0.16 0.19 0.24 0.33 0.41 0.47 0.53 0.59 0.72 0.82 0.85 0.90 0.93 0.85 0.84 0.86 0.84 0.81 0.72 0.70 0.65 0.62 0.58 0.59 0.57 0.56 0.53 0.48
0.32 0.25 0.08 0.02 0.02 0.03 0.04 0.03 0.03 0.04 0.02 0.01 0.01 0.01 0.02 0.03 0.05 0.07 0.09 0.12 0.15 0.17 0.22 0.28 0.36 0.44 0.55 0.61 0.68 0.77 0.86 0.91 0.91 0.81 0.84 0.87 0.83 0.81 0.77 0.75 0.76 0.71 0.69 0.67 0.66 0.61 0.59 0.57 0.47
0.25 0.17 0.06 0.03 0.03 0.05 0.06 0.06 0.05 0.07 0.05 0.03 0.03 0.03 0.04 0.05 0.07 0.09 0.11 0.13 0.15 0.18 0.23 0.31 0.41 0.52 0.62 0.66 0.70 0.75 0.80 0.85 0.87 0.79 0.73 0.76 0.80 0.81 0.83 0.77 0.77 0.77 0.77 0.79 0.75 0.73 0.61 0.53 0.49
0.19 0.12 0.08 0.07 0.06 0.08 0.08 0.08 0.07 0.07 0.06 0.05 0.06 0.04 0.05 0.08 0.09 0.11 0.13 0.15 0.18 0.23 0.27 0.34 0.44 0.54 0.64 0.71 0.73 0.72 0.75 0.76 0.75 0.76 0.76 0.74 0.75 0.70 0.69 0.70 0.66 0.66 0.66 0.68 0.71 0.67 0.62 0.54 0.50
0.17 0.11 0.09 0.09 0.09 0.10 0.11 0.11 0.09 0.05 0.05 0.06 0.08 0.07 0.07 0.09 0.12 0.14 0.17 0.18 0.21 0.26 0.31 0.38 0.48 0.57 0.65 0.76 0.81 0.79 0.76 0.70 0.70 0.73 0.80 0.77 0.71 0.66 0.66 0.65 0.65 0.65 0.62 0.61 0.59 0.56 0.54 0.51 0.48
0.16 0.13 0.11 0.10 0.10 0.12 0.16 0.14 0.12 0.07 0.05 0.08 0.09 0.11 0.09 0.10 0.14 0.17 0.21 0.23 0.22 0.28 0.35 0.43 0.50 0.60 0.69 0.75 0.80 0.80 0.79 0.77 0.78 0.78 0.76 0.81 0.79 0.69 0.68 0.70 0.65 0.63 0.62 0.61 0.59 0.55 0.52 0.50 0.47
0.20 0.23 0.17 0.12 0.11 0.11 0.21 0.24 0.12 0.07 0.08 0.10 0.10 0.12 0.12 0.11 0.13 0.16 0.22 0.27 0.25 0.29 0.39 0.47 0.52 0.63 0.74 0.74 0.82 0.84 0.83 0.83 0.84 0.81 0.79 0.82 0.84 0.84 0.75 0.72 0.70 0.65 0.65 0.67 0.66 0.62 0.55 0.53 0.48
0.32 0.40 0.31 0.16 0.12 0.13 0.26 0.27 0.09 0.06 0.10 0.11 0.12 0.13 0.13 0.12 0.11 0.15 0.21 0.30 0.31 0.34 0.40 0.48 0.56 0.63 0.73 0.79 0.83 0.89 0.90 0.88 0.88 0.92 0.90 0.89 0.90 0.91 0.91 0.82 0.74 0.68 0.71 0.74 0.76 0.73 0.67 0.57 0.52
0.46 0.43 0.29 0.18 0.16 0.19 0.27 0.23 0.09 0.08 0.12 0.13 0.15 0.13 0.13 0.13 0.11 0.13 0.19 0.27 0.32 0.35 0.42 0.50 0.60 0.62 0.71 0.85 0.87 0.90 0.95 0.97 0.98 1.02 1.05 1.00 0.96 0.95 0.97 0.96 0.89 0.79 0.78 0.77 0.75 0.73 0.70 0.66 0.59
0.44 0.32 0.24 0.20 0.19 0.23 0.24 0.19 0.12 0.10 0.13 0.14 0.15 0.13 0.12 0.13 0.11 0.13 0.19 0.25 0.33 0.39 0.44 0.53 0.62 0.69 0.76 0.93 1.04 1.00 1.01 1.04 1.06 1.06 1.03 1.06 1.06 0.96 0.92 0.98 0.98 0.92 0.86 0.83 0.77 0.73 0.67 0.63 0.61
0.30 0.35 0.30 0.19 0.18 0.25 0.24 0.18 0.12 0.11 0.11 0.12 0.12 0.12 0.12 0.11 0.10 0.12 0.19 0.24 0.33 0.44 0.49 0.56 0.62 0.73 0.85 0.95 1.10 1.06 1.01 1.04 1.07 1.03 1.01 0.99 1.05 1.06 0.98 0.92 0.94 0.95 0.90 0.84 0.80 0.78 0.77 0.73 0.67
0.39 0.42 0.33 0.23 0.18 0.29 0.28 0.19 0.11 0.11 0.11 0.11 0.10 0.12 0.14 0.11 0.10 0.12 0.19 0.24 0.31 0.44 0.49 0.56 0.66 0.75 0.82 0.90 0.98 1.05 1.02 1.05 1.10 1.07 1.05 1.02 1.00 1.05 1.07 0.98 0.91 0.87 0.87 0.88 0.83 0.82 0.81 0.82 0.77
0.46 0.38 0.28 0.26 0.24 0.31 0.37 0.29 0.14 0.12 0.10 0.10 0.10 0.10 0.15 0.16 0.13 0.14 0.22 0.28 0.32 0.42 0.50 0.56 0.66 0.75 0.81 0.97 1.07 1.14 1.25 1.24 1.27 1.26 1.15 1.06 1.01 0.99 1.01 1.02 0.98 0.91 0.85 0.86 0.84 0.80 0.78 0.79 0.75
0.50 0.26 0.24 0.28 0.45 0.51 0.43 0.49 0.18 0.14 0.13 0.12 0.10 0.09 0.12 0.14 0.14 0.15 0.20 0.29 0.34 0.39 0.50 0.59 0.69 0.76 0.80 0.99 1.14 1.11 1.18 1.18 1.12 1.08 1.11 1.08 1.04 0.99 0.96 0.97 0.97 0.99 0.93 0.83 0.79 0.80 0.80 0.82 0.83
0.39 0.23 0.27 0.36 0.51 0.61 0.44 0.49 0.25 0.14 0.14 0.11 0.09 0.08 0.10 0.12 0.13 0.13 0.15 0.21 0.29 0.36 0.47 0.58 0.72 0.82 0.84 0.92 1.11 1.15 1.09 1.06 1.06 1.09 1.09 1.12 1.12 1.06 0.98 0.94 0.94 0.93 0.92 0.84 0.78 0.79 0.81 0.83 0.83
0.36 0.43 0.49 0.55 0.83 1.03 0.39 0.38 0.29 0.24 0.24 0.15 0.09 0.08 0.10 0.10 0.12 0.12 0.11 0.13 0.26 0.37 0.47 0.55 0.68 0.81 0.87 0.87 0.99 1.15 1.11 1.06 1.04 1.09 1.13 1.13 1.16 1.13 1.03 0.92 0.89 0.85 0.82 0.81 0.76 0.70 0.72 0.75 0.76
0.61 0.94 1.34 1.34 1.36 0.82 0.17 0.25 0.30 0.23 0.20 0.19 0.14 0.10 0.10 0.10 0.14 0.14 0.12 0.13 0.20 0.32 0.43 0.53 0.63 0.72 0.80 0.83 0.88 0.98 1.10 1.06 0.99 0.94 1.00 1.08 1.15 1.11 1.03 0.97 0.88 0.82 0.78 0.78 0.77 0.73 0.67 0.67 0.72
0.65 0.85 1.11 1.00 0.64 0.25 0.11 0.23 0.24 0.17 0.13 0.13 0.10 0.09 0.10 0.09 0.10 0.11 0.13 0.15 0.18 0.23 0.30 0.43 0.54 0.67 0.80 0.84 0.84 0.89 0.99 1.10 1.02 0.94 0.92 0.97 1.02 0.99 0.91 0.92 0.88 0.81 0.76 0.78 0.80 0.80 0.73 0.69 0.70
0.62 0.66 0.56 0.72 0.52 0.32 0.21 0.19 0.16 0.07 0.06 0.08 0.09 0.08 0.09 0.09 0.09 0.10 0.12 0.15 0.17 0.22 0.25 0.36 0.45 0.59 0.78 0.89 0.88 0.88 0.93 1.01 1.03 0.95 0.91 0.93 0.93 0.93 0.92 0.91 0.91 0.86 0.85 0.85 0.85 0.85 0.80 0.75 0.73
0.52 0.61 0.75 1.08 0.88 0.45 0.23 0.21 0.23 0.14 0.11 0.10 0.10 0.10 0.09 0.10 0.11 0.11 0.12 0.15 0.17 0.20 0.23 0.31 0.39 0.47 0.60 0.79 0.93 0.93 0.90 0.91 0.98 1.01 0.97 0.92 0.92 0.92 0.92 0.97 0.98 0.93 0.89 0.92 0.94 0.90 0.84 0.84 0.80
0.62 0.81 1.02 1.05 0.76 0.54 0.33 0.30 0.29 0.22 0.18 0.15 0.12 0.12 0.11 0.10 0.11 0.11 0.13 0.15 0.18 0.21 0.26 0.32 0.39 0.45 0.51 0.61 0.78 0.90 0.91 0.95 1.00 1.04 0.99 0.98 0.94 0.93 0.90 0.90 0.98 1.01 0.94 0.88 0.95 0.97 0.93 0.92 0.86
0.53 0.71 0.90 1.10 0.77 0.41 0.36 0.31 0.24 0.19 0.16 0.15 0.13 0.11 0.09 0.09 0.09 0.09 0.11 0.16 0.20 0.24 0.29 0.35 0.43 0.45 0.47 0.55 0.66 0.78 0.89 0.94 1.00 0.99 1.01 1.06 1.04 0.97 0.89 0.86 0.93 1.00 0.99 0.91 0.90 0.93 0.93 0.95 0.92

GEFSSGP_prec_meanprecacc_222.txt.gz
Total_Precipitation_Accumulation
0.07 0.05 0.05 0.07 0.05 0.03 0.01 0.00 0.00 0.00 0.00 0.00 0.00 0.00 0.00 0.00 0.00 0.01 0.01 0.01 0.02 0.05 0.10 0.19 0.25 0.29 0.32 0.34 0.35 0.35 0.36 0.37 0.40 0.42 0.47 0.52 0.53 0.54 0.58 0.62 0.63 0.64 0.70 0.74 0.76 0.73 0.71 0.70 0.65
0.06 0.06 0.08 0.09 0.05 0.02 0.00 0.00 0.00 0.00 0.00 0.00 0.00 0.00 0.00 0.00 0.00 0.00 0.01 0.01 0.01 0.03 0.07 0.14 0.25 0.29 0.33 0.35 0.36 0.36 0.36 0.37 0.39 0.44 0.49 0.53 0.54 0.55 0.59 0.62 0.64 0.65 0.68 0.75 0.76 0.74 0.72 0.70 0.70
0.09 0.10 0.11 0.09 0.04 0.00 0.00 0.00 0.00 0.00 0.00 0.00 0.00 0.00 0.00 0.00 0.00 0.01 0.01 0.01 0.01 0.02 0.05 0.13 0.25 0.31 0.35 0.38 0.39 0.39 0.41 0.42 0.44 0.46 0.50 0.56 0.58 0.60 0.61 0.60 0.59 0.59 0.59 0.62 0.64 0.70 0.75 0.74 0.73
0.13 0.18 0.15 0.09 0.02 0.00 0.00 0.00 0.00 0.00 0.00 0.00 0.00 0.00 0.00 0.00 0.01 0.01 0.01 0.01 0.02 0.03 0.06 0.14 0.25 0.33 0.38 0.42 0.42 0.41 0.44 0.46 0.49 0.52 0.54 0.60 0.67 0.67 0.65 0.62 0.63 0.58 0.55 0.56 0.60 0.65 0.75 0.74 0.69
0.18 0.22 0.17 0.07 0.01 0.00 0.00 0.00 0.00 0.00 0.00 0.00 0.00 0.00 0.00 0.00 0.00 0.01 0.02 0.03 0.04 0.05 0.08 0.15 0.25 0.36 0.41 0.45 0.47 0.47 0.49 0.51 0.53 0.55 0.58 0.63 0.68 0.69 0.67 0.67 0.65 0.62 0.60 0.58 0.58 0.63 0.73 0.71 0.66
0.22 0.23 0.15 0.05 0.01 0.00 0.00 0.00 0.00 0.00 0.00 0.00 0.00 0.00 0.00 0.00 0.00 0.01 0.01 0.02 0.02 0.04 0.06 0.13 0.27 0.36 0.42 0.48 0.51 0.54 0.57 0.60 0.61 0.61 0.66 0.69 0.71 0.70 0.69 0.68 0.64 0.64 0.62 0.59 0.60 0.63 0.67 0.64 0.60
0.23 0.21 0.10 0.03 0.01 0.00 0.00 0.00 0.00 0.00 0.00 0.00 0.00 0.00 0.00 0.01 0.00 0.01 0.02 0.03 0.04 0.06 0.10 0.16 0.28 0.38 0.46 0.54 0.58 0.61 0.65 0.67 0.67 0.69 0.72 0.75 0.75 0.76 0.73 0.67 0.60 0.62 0.62 0.62 0.61 0.60 0.58 0.56 0.53
0.23 0.24 0.12 0.04 0.03 0.01 0.00 0.00 0.00 0.01 0.01 0.00 0.00 0.00 0.01 0.01 0.01 0.02 0.04 0.06 0.08 0.11 0.15 0.21 0.30 0.37 0.45 0.55 0.62 0.67 0.71 0.74 0.80 0.83 0.76 0.76 0.83 0.87 0.82 0.73 0.66 0.63 0.61 0.60 0.59 0.57 0.51 0.48 0.48
0.30 0.34 0.14 0.04 0.02 0.02 0.01 0.01 0.01 0.01 0.01 0.01 0.00 0.00 0.01 0.02 0.03 0.05 0.08 0.11 0.15 0.17 0.20 0.25 0.35 0.42 0.49 0.55 0.61 0.75 0.85 0.88 0.93 0.97 0.88 0.86 0.87 0.86 0.82 0.73 0.70 0.65 0.62 0.58 0.59 0.58 0.58 0.54 0.49
0.35 0.28 0.09 0.03 0.02 0.03 0.04 0.04 0.03 0.04 0.03 0.01 0.01 0.01 0.02 0.03 0.05 0.08 0.10 0.12 0.16 0.18 0.23 0.29 0.37 0.46 0.57 0.63 0.70 0.81 0.89 0.94 0.93 0.83 0.86 0.89 0.83 0.82 0.78 0.76 0.76 0.71 0.69 0.68 0.66 0.61 0.60 0.58 0.48
0.28 0.18 0.07 0.03 0.03 0.05 0.06 0.06 0.05 0.07 0.06 0.03 0.03 0.03 0.04 0.05 0.07 0.09 0.11 0.13 0.16 0.18 0.24 0.32 0.42 0.54 0.64 0.68 0.72 0.77 0.83 0.87 0.89 0.81 0.74 0.77 0.81 0.81 0.83 0.77 0.78 0.78 0.77 0.79 0.75 0.73 0.62 0.54 0.51
0.21 0.13 0.09 0.07 0.06 0.08 0.08 0.09 0.07 0.07 0.06 0.05 0.06 0.04 0.05 0.08 0.09 0.11 0.14 0.15 0.18 0.23 0.28 0.35 0.45 0.56 0.66 0.74 0.76 0.75 0.77 0.78 0.77 0.78 0.78 0.75 0.76 0.70 0.69 0.70 0.66 0.67 0.66 0.68 0.71 0.67 0.62 0.54 0.51
0.18 0.12 0.10 0.10 0.11 0.11 0.11 0.12 0.09 0.05 0.05 0.06 0.08 0.07 0.07 0.09 0.12 0.15 0.17 0.19 0.21 0.26 0.32 0.39 0.50 0.58 0.68 0.80 0.85 0.82 0.78 0.72 0.71 0.75 0.82 0.78 0.71 0.66 0.66 0.65 0.65 0.65 0.63 0.61 0.60 0.56 0.54 0.51 0.48
0.17 0.14 0.12 0.11 0.12 0.14 0.17 0.14 0.13 0.07 0.05 0.08 0.09 0.11 0.09 0.10 0.14 0.18 0.22 0.24 0.23 0.29 0.36 0.45 0.53 0.63 0.72 0.78 0.82 0.82 0.81 0.78 0.79 0.79 0.77 0.82 0.80 0.69 0.68 0.70 0.66 0.63 0.63 0.61 0.59 0.55 0.52 0.50 0.47
0.21 0.24 0.18 0.13 0.12 0.12 0.22 0.24 0.13 0.07 0.08 0.10 0.10 0.13 0.12 0.11 0.14 0.17 0.23 0.28 0.26 0.30 0.40 0.50 0.55 0.67 0.77 0.78 0.85 0.87 0.85 0.85 0.86 0.82 0.80 0.84 0.85 0.84 0.75 0.72 0.70 0.65 0.65 0.67 0.66 0.63 0.55 0.53 0.48
0.34 0.42 0.33 0.16 0.13 0.14 0.28 0.27 0.09 0.06 0.10 0.11 0.12 0.13 0.13 0.12 0.12 0.15 0.22 0.31 0.33 0.36 0.42 0.51 0.60 0.67 0.77 0.81 0.85 0.91 0.92 0.90 0.90 0.93 0.91 0.90 0.91 0.91 0.91 0.82 0.74 0.68 0.71 0.74 0.76 0.73 0.67 0.57 0.53
0.51 0.47 0.31 0.19 0.17 0.20 0.29 0.24 0.09 0.08 0.12 0.13 0.15 0.13 0.13 0.13 0.12 0.13 0.20 0.28 0.35 0.37 0.43 0.52 0.62 0.65 0.74 0.87 0.88 0.91 0.96 0.99 0.99 1.03 1.06 1.00 0.96 0.95 0.97 0.96 0.89 0.79 0.78 0.77 0.75 0.73 0.70 0.66 0.59
0.49 0.35 0.26 0.21 0.20 0.23 0.26 0.20 0.12 0.10 0.13 0.14 0.15 0.13 0.12 0.13 0.11 0.13 0.20 0.27 0.36 0.40 0.45 0.55 0.64 0.72 0.78 0.95 1.06 1.01 1.02 1.05 1.08 1.07 1.04 1.06 1.07 0.97 0.92 0.98 0.98 0.92 0.86 0.83 0.77 0.73 0.67 0.63 0.61
0.33 0.37 0.31 0.20 0.18 0.25 0.25 0.18 0.12 0.11 0.11 0.12 0.12 0.12 0.12 0.11 0.11 0.13 0.19 0.25 0.34 0.45 0.49 0.57 0.64 0.75 0.87 0.97 1.11 1.07 1.02 1.05 1.08 1.04 1.02 1.00 1.06 1.06 0.98 0.92 0.94 0.95 0.90 0.84 0.80 0.78 0.77 0.73 0.67
0.41 0.45 0.34 0.23 0.18 0.29 0.28 0.19 0.12 0.12 0.11 0.12 0.10 0.12 0.14 0.11 0.10 0.13 0.20 0.25 0.32 0.45 0.50 0.57 0.67 0.76 0.83 0.90 0.99 1.06 1.03 1.06 1.11 1.08 1.06 1.03 1.01 1.05 1.07 0.98 0.91 0.87 0.87 0.88 0.83 0.82 0.81 0.82 0.77
0.49 0.40 0.29 0.27 0.25 0.32 0.37 0.30 0.14 0.12 0.10 0.11 0.10 0.10 0.15 0.16 0.14 0.14 0.23 0.30 0.34 0.43 0.51 0.56 0.67 0.76 0.82 0.97 1.07 1.15 1.25 1.25 1.27 1.27 1.15 1.06 1.02 0.99 1.01 1.02 0.98 0.91 0.85 0.86 0.84 0.80 0.78 0.79 0.76
0.53 0.27 0.25 0.29 0.46 0.52 0.44 0.50 0.19 0.14 0.13 0.12 0.10 0.09 0.12 0.14 0.14 0.16 0.21 0.31 0.35 0.40 0.51 0.59 0.70 0.77 0.81 1.00 1.15 1.12 1.19 1.18 1.12 1.08 1.11 1.08 1.04 1.00 0.96 0.97 0.97 0.99 0.93 0.83 0.79 0.80 0.80 0.82 0.83
0.41 0.23 0.28 0.38 0.53 0.62 0.45 0.51 0.26 0.14 0.14 0.11 0.09 0.09 0.10 0.12 0.13 0.13 0.15 0.21 0.30 0.37 0.48 0.59 0.73 0.83 0.85 0.93 1.12 1.16 1.10 1.06 1.06 1.10 1.09 1.12 1.12 1.07 0.98 0.94 0.94 0.94 0.92 0.84 0.78 0.79 0.82 0.84 0.84
0.40 0.46 0.52 0.58 0.87 1.07 0.40 0.40 0.31 0.25 0.25 0.16 0.09 0.08 0.10 0.10 0.12 0.12 0.11 0.13 0.26 0.37 0.47 0.56 0.68 0.82 0.88 0.88 1.00 1.16 1.11 1.06 1.05 1.09 1.13 1.13 1.16 1.13 1.03 0.93 0.89 0.85 0.82 0.81 0.76 0.71 0.72 0.76 0.76
0.68 1.02 1.43 1.45 1.45 0.87 0.18 0.27 0.33 0.25 0.21 0.20 0.15 0.11 0.11 0.11 0.14 0.14 0.12 0.13 0.21 0.32 0.43 0.53 0.63 0.72 0.80 0.83 0.88 0.98 1.10 1.07 0.99 0.95 1.00 1.08 1.15 1.11 1.03 0.97 0.88 0.82 0.78 0.78 0.77 0.73 0.67 0.68 0.72
0.72 0.92 1.17 1.07 0.69 0.26 0.12 0.24 0.26 0.17 0.13 0.13 0.11 0.10 0.10 0.09 0.10 0.11 0.13 0.15 0.19 0.23 0.30 0.44 0.54 0.67 0.80 0.84 0.84 0.89 0.99 1.10 1.02 0.94 0.92 0.97 1.02 0.99 0.91 0.92 0.89 0.81 0.76 0.78 0.80 0.80 0.73 0.69 0.70
0.67 0.72 0.60 0.76 0.54 0.33 0.22 0.20 0.16 0.07 0.07 0.08 0.09 0.08 0.10 0.09 0.09 0.10 0.12 0.15 0.17 0.22 0.25 0.36 0.45 0.60 0.78 0.89 0.88 0.88 0.93 1.02 1.04 0.95 0.91 0.93 0.93 0.93 0.92 0.91 0.91 0.86 0.85 0.85 0.85 0.85 0.80 0.75 0.73
0.55 0.65 0.80 1.13 0.92 0.47 0.24 0.23 0.24 0.14 0.12 0.10 0.10 0.10 0.10 0.11 0.11 0.11 0.12 0.15 0.17 0.20 0.23 0.31 0.40 0.48 0.60 0.79 0.93 0.93 0.90 0.91 0.99 1.01 0.97 0.92 0.92 0.92 0.92 0.97 0.98 0.93 0.89 0.92 0.95 0.90 0.84 0.84 0.80
0.64 0.86 1.07 1.10 0.79 0.56 0.35 0.31 0.30 0.23 0.18 0.15 0.12 0.12 0.12 0.11 0.11 0.11 0.13 0.16 0.18 0.21 0.26 0.32 0.39 0.45 0.51 0.62 0.78 0.90 0.91 0.95 1.00 1.04 0.99 0.98 0.95 0.94 0.90 0.90 0.98 1.01 0.94 0.88 0.95 0.97 0.94 0.92 0.86
0.56 0.75 0.95 1.14 0.80 0.43 0.38 0.33 0.24 0.19 0.17 0.16 0.14 0.11 0.10 0.09 0.10 0.10 0.11 0.16 0.20 0.24 0.29 0.35 0.43 0.45 0.47 0.55 0.66 0.78 0.89 0.94 1.00 0.99 1.01 1.06 1.05 0.97 0.89 0.86 0.93 1.00 0.99 0.91 0.90 0.93 0.93 0.95 0.92